Showing default

KANOPUS-V 6, 43877

Orbit data source: Space-Track

KANOPUS-V 6, 43877 is a payload satellite owned by VNIIEM (CIS) in SSO that was launched on Thu, 27 Dec 2018 UTC via a SOYUZ-2-1A launch vehicle from the Vostochny Cosmodrome (VOSTO). Payload-class satellites include a variety of spacecraft equipped with specific instruments for various scientific and technological missions. These include communications satellites like Starlink; space stations such as the ISS; scientific satellites like the Hubble; Earth observation satellites from companies like Planet Labs, Umbra, and HawkEye 360; GPS; miniature CubeSats for education and research; and military/defense satellites.

Loading next visibility...
Identifier
43877, 2018-111B
Orbit
SSO
Country
Flag of CISCIS
Related business
Manufacturer
VNIIEM
Mission
Operational Civil Imaging
Bus & Motor
KANOPUS, Unknown motor
Mass
473 kg wet, 473 kg dry
Launch date (UTC)
2018-12-27 (7 years ago)
Launch vehicle
SOYUZ-2-1A
Launch site
Vostochny Cosmodrome (VOSTO)
Object type
Payload
Rocket body
Debris
Shape & HBR
Box + 2 Pan, 3.0 m
Radar Cross Section
1.665 m², Large (>1 m²)

Expand to show TLE details & history
Last TLE update: 5 hours ago

TLE from 5 hours ago
0 KANOPUS-V 6
1 43877U 18111B   25260.99107554  .00005155  00000-0  16381-3 0  9994
2 43877  97.3729 172.2311 0002174  95.6336 264.5154 15.33074696373713
Epoch: 2025-09-17T23:47Z
TLE epoch observation values (Epoch: 2025-09-17T23:47:08.926Z)
Latitude
-0.00006°
Longitude
178.28483°
Altitude
469.897 km
Speed
7.631 km/s
True Right ascension
11h 28m 55s
True Declination
0° 00' 00"
Sunlit
Object was in daylight at epoch
Visualization orbit readout
Latitude
Unknown
Longitude
Unknown
Altitude
Unknown
Speed
Unknown
Apparent Right ascension
Unknown
Apparent Declination
Unknown
Sunlit
N/A
Visualization observer readout
Local Sidereal Time
21:59:23
Azimuth
Unknown
Elevation
Unknown
Doppler factor
Unknown
Orbital elements
Apogee altitude
465.08 km
Perigee altitude
462.105 km
Semi-major axis
6,841.729 km
Eccentricity
0.00022
Inclination
97.3729°
RAAN
172.2311°
Arg. of periapsis
95.6336°
True anomaly
264.4906°
Mean anomaly
264.5154°
Eccentric anomaly
264.503°
Mean motion
3.83526 °/min
Orbital period
93.87 mins
BSTAR
0.00016381
Loading maneuver chart data...
Computing Atmospheric mass density...
Loading historical data...
Loading historical data...
Loading historical data...
Loading historical data...
Loading historical data...
Loading historical data...
Loading historical data...

Documentation

Showing up to 5 results
|